Home   Weather   Sandnes   Past weeks

Flag for Norway Past Weather in Sandnes, Norway — Yesterday and Last 2 Weeks

Now
32 °F

Passing clouds.


Feels Like: 26 °F
Forecast: 39 / 44 °F
Wind: 7 mph from Southeast

Location: Stavanger / Sola

Current Time: Jan 17, 2017 at 1:58:47 am

Latest Report: Jan 17, 2017 at 12:50 am


Visibility: N/A

Pressure: 30.45 "Hg

Humidity: 80%

Dew Point: 27 °F

Location of SandnesLocation

Past Weather in Sandnes — Graph

°F

Sandnes Temperature Yesterday

Maximum temperature yesterday: 32 °F (at 9:50 pm)
Minimum temperature yesterday: 16 °F (at 4:50 am)
Average temperature yesterday: 24 °F

High & Low Weather Summary for the Past Weeks

 TemperatureHumidityPressure
High45 °F (Jan 3, 8:20 am)100% (Jan 2, 11:20 pm)30.63 "Hg (Jan 2, 11:20 pm)
Low16 °F (Jan 16, 4:50 am)46% (Jan 5, 7:20 pm)28.53 "Hg (Jan 11, 9:20 am)
Average35 °F80%29.81 "Hg
* Reported Jan 2 12:50 am — Jan 17 12:50 am, Sandnes, Weather by CustomWeather, © 2017

Note: Actual official high and low records may vary slightly from our data, if they occured in-between our weather recording intervals... More about our weather records

Advertising

Sandnes Weather History for the Previous 24 Hours

Scroll right to see more
 ConditionsComfort  
Time TempWeatherWind HumidityBarometerVisibility
12:50 am
Tue, Jan 17
32 °FPassing clouds.7 mph80%30.45 "HgN/A
11:50 pm
Mon, Jan 16
32 °FPassing clouds.6 mph75%30.45 "HgN/A
11:20 pm32 °FPassing clouds.6 mph69%30.45 "HgN/A
10:50 pm32 °FPassing clouds.7 mph69%30.45 "HgN/A
10:20 pm32 °FPassing clouds.9 mph64%30.42 "HgN/A
9:50 pm32 °FPartly cloudy.9 mph64%30.42 "HgN/A
9:20 pm30 °FPartly cloudy.9 mph64%30.45 "HgN/A
8:50 pm30 °FPartly cloudy.8 mph64%30.45 "HgN/A
8:20 pm30 °FPassing clouds.7 mph64%30.45 "HgN/A
7:50 pm30 °FPassing clouds.8 mph59%30.42 "HgN/A
7:20 pm28 °FPassing clouds.8 mph64%30.42 "HgN/A
6:50 pm28 °FPassing clouds.7 mph64%30.42 "HgN/A
6:20 pm28 °FPassing clouds.3 mph59%30.42 "HgN/A
5:50 pm28 °FPartly cloudy.8 mph59%30.42 "HgN/A
5:20 pm28 °FPassing clouds.6 mph59%30.42 "HgN/A
4:50 pm28 °FPassing clouds.8 mph55%30.39 "HgN/A
4:20 pm28 °FPassing clouds.6 mph55%30.39 "HgN/A
3:50 pm28 °FScattered clouds.6 mph55%30.39 "HgN/A
3:20 pm30 °FSunny.6 mph51%30.39 "Hg10 mi
2:50 pm30 °FSunny.6 mph47%30.39 "Hg10 mi
2:20 pm30 °FSunny.6 mph47%30.39 "Hg10 mi
1:50 pm30 °FSunny.3 mph47%30.39 "Hg10 mi
1:20 pm27 °FSunny.5 mph59%30.39 "Hg10 mi
12:50 pm27 °FSunny.6 mph50%30.39 "Hg10 mi
12:20 pm27 °FSunny.7 mph54%30.39 "Hg10 mi
11:50 am25 °FSunny.7 mph63%30.39 "Hg10 mi
11:20 am23 °FPassing clouds.3 mph63%30.39 "HgN/A
10:50 am21 °FPassing clouds.7 mph68%30.36 "HgN/A
10:20 am18 °FSunny.3 mph79%30.36 "Hg10 mi
9:50 am16 °FSunny.No wind79%30.36 "Hg10 mi
9:20 am18 °FSunny.2 mph79%30.36 "Hg10 mi
8:50 am18 °FClear.9 mph73%30.36 "Hg10 mi
8:20 am16 °FPassing clouds.6 mph73%30.33 "HgN/A
7:50 am18 °FClear.3 mph68%30.33 "Hg10 mi
7:20 am18 °FClear.2 mph73%30.33 "Hg10 mi
6:50 am18 °FClear.7 mph79%30.33 "Hg10 mi
6:20 am16 °FClear.2 mph79%30.30 "Hg10 mi
5:50 am16 °FPassing clouds.5 mph86%30.30 "HgN/A
4:50 am16 °FClear.No wind86%30.30 "Hg10 mi
3:50 am18 °FClear.3 mph79%30.30 "Hg10 mi
2:50 am18 °FClear.No wind79%30.30 "Hg10 mi
1:50 am18 °FClear.3 mph86%30.27 "Hg10 mi
Weather by CustomWeather, © 2017

See weather overviewHow to use our weather pages